Precipitable_Water
1.25 1.24 1.26 1.22 1.17 1.20 1.27 1.31 1.33 1.34 1.34 1.30 1.27 1.27 1.29 1.29 1.29 1.27 1.23 1.16 1.15 1.14 1.13 1.12 1.10 1.07 1.05 1.04 1.01 1.01 1.00 0.97 1.00 1.00 0.98 1.00 1.04 1.08 1.09 1.11 1.09 1.09 1.08 1.09 1.13 1.10 1.08 1.06 1.07 1.10 1.14 1.10 1.09 1.10 1.10 1.11 1.09 1.03 0.97 0.93 0.88 0.86 0.81 0.73 0.62 0.58 0.60 0.64 0.59 0.58 0.58 0.53 0.44 0.42 0.39 0.39 0.38 0.37 0.38 0.40 0.45 0.47 0.48 0.49 0.51
1.28 1.24 1.21 1.20 1.17 1.20 1.25 1.30 1.32 1.33 1.32 1.29 1.27 1.25 1.26 1.26 1.26 1.23 1.17 1.18 1.17 1.12 1.09 1.07 1.06 1.08 1.05 1.03 1.02 0.98 0.95 0.92 0.94 0.95 0.94 0.96 0.97 1.02 1.03 1.04 1.04 1.05 1.05 1.05 1.08 1.07 1.08 1.06 1.07 1.10 1.13 1.11 1.08 1.08 1.08 1.11 1.05 0.99 0.97 0.92 0.88 0.85 0.82 0.72 0.68 0.62 0.55 0.58 0.57 0.59 0.53 0.51 0.41 0.42 0.38 0.38 0.38 0.40 0.39 0.42 0.46 0.49 0.50 0.52 0.53
1.33 1.31 1.24 1.20 1.18 1.21 1.29 1.32 1.33 1.34 1.32 1.29 1.26 1.25 1.25 1.25 1.25 1.16 1.16 1.18 1.17 1.15 1.07 1.06 1.08 1.10 1.04 1.04 1.00 0.93 0.93 0.93 0.95 0.93 0.93 0.92 0.92 0.95 0.97 0.97 0.98 0.98 1.00 1.03 1.05 1.07 1.06 1.06 1.07 1.10 1.11 1.10 1.13 1.06 1.10 1.06 0.99 0.96 0.94 0.93 0.88 0.86 0.83 0.77 0.72 0.63 0.59 0.57 0.60 0.54 0.50 0.48 0.43 0.42 0.41 0.41 0.41 0.44 0.44 0.45 0.48 0.51 0.54 0.56 0.57
1.29 1.29 1.28 1.25 1.26 1.29 1.30 1.35 1.36 1.34 1.31 1.29 1.27 1.27 1.24 1.25 1.23 1.15 1.18 1.19 1.13 1.13 1.10 1.10 1.10 1.08 1.03 1.01 0.96 0.96 0.95 0.94 0.94 0.94 0.93 0.94 0.94 0.93 0.94 0.94 0.93 0.92 0.93 1.03 1.07 1.09 1.07 1.05 1.06 1.09 1.09 1.05 1.08 1.03 1.03 0.99 0.97 0.94 0.91 0.86 0.81 0.79 0.79 0.78 0.75 0.68 0.64 0.58 0.60 0.58 0.56 0.51 0.48 0.48 0.46 0.46 0.47 0.50 0.52 0.52 0.55 0.56 0.59 0.62 0.64
1.23 1.25 1.25 1.25 1.27 1.29 1.32 1.38 1.38 1.37 1.33 1.30 1.28 1.29 1.26 1.23 1.17 1.12 1.17 1.16 1.14 1.12 1.11 1.12 1.04 0.96 0.95 0.94 0.95 0.98 0.97 0.92 0.89 0.88 0.89 0.90 0.89 0.87 0.89 0.93 0.93 0.91 0.90 0.97 1.06 1.11 1.09 1.05 1.07 1.08 1.07 1.05 1.01 0.98 0.93 0.90 0.88 0.85 0.81 0.80 0.79 0.78 0.77 0.76 0.75 0.72 0.65 0.61 0.62 0.66 0.66 0.62 0.59 0.58 0.58 0.57 0.59 0.58 0.59 0.58 0.60 0.61 0.62 0.63 0.65
1.20 1.22 1.25 1.24 1.25 1.29 1.31 1.34 1.37 1.36 1.35 1.32 1.29 1.30 1.28 1.21 1.13 1.13 1.15 1.12 1.12 1.12 1.11 1.06 0.94 0.86 0.87 0.92 0.96 0.98 0.97 0.93 0.88 0.85 0.85 0.87 0.86 0.83 0.85 0.91 0.88 0.88 0.92 1.01 1.09 1.13 1.12 1.10 1.09 1.09 1.07 1.01 0.97 0.94 0.90 0.88 0.86 0.81 0.78 0.78 0.78 0.78 0.77 0.76 0.75 0.71 0.67 0.66 0.66 0.64 0.67 0.63 0.61 0.59 0.63 0.64 0.63 0.64 0.66 0.68 0.69 0.69 0.67 0.65 0.65
1.16 1.18 1.22 1.23 1.24 1.27 1.31 1.30 1.29 1.32 1.36 1.31 1.31 1.29 1.26 1.21 1.16 1.13 1.14 1.12 1.11 1.11 1.09 0.99 0.93 0.89 0.89 0.92 0.95 0.95 0.93 0.92 0.89 0.86 0.87 0.87 0.86 0.84 0.86 0.88 0.87 0.90 0.95 1.04 1.11 1.15 1.15 1.13 1.12 1.11 1.05 1.00 0.96 0.92 0.91 0.88 0.85 0.82 0.80 0.79 0.77 0.75 0.73 0.72 0.71 0.69 0.68 0.68 0.69 0.68 0.66 0.67 0.65 0.62 0.67 0.68 0.67 0.67 0.66 0.66 0.65 0.68 0.69 0.68 0.67
1.14 1.17 1.19 1.18 1.19 1.24 1.34 1.39 1.36 1.35 1.39 1.33 1.30 1.29 1.27 1.22 1.16 1.14 1.16 1.11 1.09 1.10 1.04 0.97 0.94 0.93 0.93 0.95 0.96 0.95 0.94 0.92 0.89 0.87 0.86 0.85 0.84 0.82 0.83 0.83 0.84 0.89 0.94 1.03 1.11 1.17 1.16 1.14 1.10 1.08 1.03 0.99 0.97 0.94 0.92 0.88 0.86 0.82 0.83 0.81 0.80 0.76 0.72 0.71 0.70 0.70 0.68 0.67 0.66 0.67 0.68 0.66 0.66 0.69 0.70 0.68 0.66 0.67 0.69 0.67 0.63 0.65 0.67 0.69 0.70
1.18 1.20 1.19 1.13 1.16 1.23 1.29 1.32 1.36 1.37 1.37 1.37 1.31 1.28 1.31 1.23 1.16 1.15 1.13 1.12 1.11 1.07 1.02 0.99 0.95 0.92 0.91 0.95 0.96 0.97 0.96 0.94 0.90 0.85 0.83 0.82 0.83 0.81 0.84 0.83 0.84 0.85 0.91 0.99 1.05 1.11 1.09 1.06 1.02 1.03 1.02 1.00 0.99 0.96 0.93 0.91 0.86 0.82 0.84 0.84 0.82 0.79 0.78 0.78 0.76 0.73 0.71 0.69 0.68 0.69 0.66 0.66 0.68 0.68 0.66 0.64 0.63 0.65 0.70 0.70 0.66 0.69 0.70 0.70 0.73
1.13 1.13 1.14 1.19 1.23 1.25 1.27 1.29 1.31 1.33 1.34 1.33 1.35 1.27 1.25 1.24 1.16 1.09 1.09 1.11 1.07 1.04 1.01 1.01 0.98 0.91 0.88 0.91 0.95 0.95 0.94 0.95 0.91 0.86 0.81 0.79 0.80 0.83 0.85 0.85 0.85 0.83 0.85 0.92 1.01 1.05 1.07 1.03 1.03 1.03 1.02 1.00 0.98 0.96 0.93 0.91 0.91 0.89 0.89 0.88 0.86 0.85 0.84 0.82 0.80 0.79 0.76 0.73 0.73 0.71 0.69 0.68 0.70 0.70 0.67 0.67 0.69 0.70 0.69 0.68 0.64 0.68 0.71 0.70 0.72
1.10 1.11 1.12 1.20 1.23 1.26 1.27 1.26 1.30 1.32 1.33 1.34 1.35 1.26 1.22 1.24 1.14 1.08 1.09 1.09 1.06 1.03 1.04 1.01 0.97 0.92 0.91 0.93 0.94 0.95 0.94 0.97 0.95 0.91 0.84 0.80 0.82 0.85 0.86 0.88 0.89 0.85 0.83 0.88 0.95 0.99 1.00 1.02 1.01 1.00 0.99 0.98 0.96 0.94 0.94 0.93 0.92 0.93 0.93 0.94 0.94 0.91 0.87 0.84 0.83 0.84 0.82 0.80 0.81 0.80 0.77 0.76 0.79 0.83 0.79 0.77 0.75 0.72 0.71 0.70 0.68 0.68 0.67 0.66 0.63
1.05 1.08 1.13 1.19 1.24 1.25 1.24 1.26 1.28 1.31 1.32 1.31 1.31 1.28 1.21 1.26 1.16 1.09 1.08 1.07 1.05 1.02 1.01 0.98 0.94 0.91 0.92 0.93 0.93 0.93 0.95 0.98 0.98 0.94 0.86 0.82 0.86 0.89 0.88 0.87 0.89 0.87 0.86 0.84 0.86 0.94 0.94 0.93 0.96 0.98 0.95 0.92 0.88 0.88 0.89 0.89 0.90 0.92 0.94 0.94 0.93 0.93 0.93 0.90 0.86 0.84 0.84 0.82 0.80 0.82 0.82 0.82 0.84 0.85 0.86 0.86 0.86 0.86 0.84 0.81 0.77 0.74 0.73 0.73 0.73
1.07 1.10 1.14 1.17 1.24 1.26 1.29 1.26 1.27 1.30 1.31 1.32 1.31 1.25 1.20 1.22 1.14 1.11 1.07 1.07 1.03 0.99 0.97 0.94 0.90 0.90 0.91 0.90 0.88 0.92 0.94 0.99 1.01 0.99 0.91 0.87 0.87 0.92 0.91 0.90 0.90 0.88 0.89 0.89 0.86 0.88 0.91 0.90 0.89 0.91 0.92 0.91 0.90 0.90 0.90 0.88 0.87 0.86 0.88 0.88 0.90 0.92 0.93 0.94 0.94 0.90 0.88 0.85 0.82 0.83 0.85 0.86 0.83 0.85 0.92 0.93 0.97 0.92 0.93 0.91 0.91 0.89 0.88 0.88 0.89
1.03 1.07 1.14 1.19 1.23 1.25 1.28 1.27 1.27 1.29 1.31 1.32 1.30 1.22 1.16 1.18 1.15 1.12 1.08 1.06 1.00 0.96 0.93 0.90 0.89 0.88 0.89 0.89 0.89 0.90 0.93 0.98 1.01 1.00 0.97 0.92 0.88 0.93 0.94 0.93 0.94 0.93 0.91 0.91 0.91 0.90 0.88 0.87 0.87 0.88 0.92 0.93 0.93 0.94 0.93 0.91 0.87 0.85 0.86 0.88 0.91 0.94 0.95 0.96 0.96 0.95 0.93 0.89 0.86 0.82 0.89 0.92 0.89 0.93 1.00 1.02 0.97 0.93 0.93 0.91 0.94 0.93 0.92 0.91 0.96
1.00 1.05 1.06 1.13 1.24 1.29 1.27 1.27 1.28 1.30 1.31 1.29 1.25 1.20 1.16 1.21 1.14 1.10 1.06 1.01 0.97 0.93 0.90 0.89 0.88 0.88 0.88 0.89 0.89 0.90 0.93 0.97 1.00 1.01 0.99 0.96 0.94 0.94 0.96 0.94 0.95 0.96 0.97 0.97 0.97 0.97 0.96 0.96 0.95 0.95 0.97 0.97 0.99 0.98 0.96 0.95 0.95 0.96 0.97 0.98 0.99 0.99 0.99 0.99 0.99 0.99 0.99 0.99 0.97 0.97 0.98 1.00 0.99 1.00 1.03 1.05 1.03 1.01 1.01 0.98 0.98 1.00 1.02 1.05 1.06
0.95 0.99 1.05 1.10 1.16 1.24 1.27 1.24 1.26 1.28 1.28 1.26 1.22 1.17 1.17 1.19 1.11 1.08 1.04 1.01 0.99 0.97 0.95 0.94 0.91 0.89 0.89 0.90 0.90 0.91 0.94 0.97 0.99 1.00 1.01 1.00 1.00 0.99 0.99 0.96 0.94 0.95 0.97 0.98 1.01 1.02 1.03 1.02 1.00 0.98 0.97 1.01 1.03 1.04 1.03 1.02 0.99 0.98 0.98 0.99 1.01 1.03 1.02 1.04 1.03 1.00 0.96 0.94 0.92 0.91 0.91 0.93 0.94 0.95 0.97 1.00 1.02 1.03 1.04 1.05 1.01 1.00 0.96 0.88 0.86
0.91 0.95 0.99 1.05 1.14 1.19 1.24 1.25 1.24 1.25 1.24 1.22 1.16 1.14 1.17 1.11 1.10 1.07 1.02 0.99 0.97 0.97 0.96 0.95 0.94 0.92 0.90 0.90 0.90 0.92 0.94 0.97 0.98 0.99 1.00 1.01 1.00 1.01 1.00 1.02 1.02 1.00 0.99 1.02 1.04 1.04 1.05 1.04 1.03 1.01 0.97 1.01 1.03 1.01 1.00 0.95 0.92 0.91 0.92 0.93 0.94 0.94 0.94 0.98 0.99 0.98 0.96 0.95 0.94 0.93 0.93 0.93 0.94 0.95 0.97 1.00 1.02 1.04 1.02 0.97 0.94 0.95 0.91 0.86 0.86
0.86 0.88 0.92 0.99 1.07 1.15 1.20 1.22 1.22 1.21 1.23 1.17 1.12 1.12 1.13 1.13 1.11 1.10 1.03 0.99 0.97 0.97 0.97 0.96 0.96 0.94 0.92 0.91 0.92 0.92 0.93 0.96 0.98 0.98 0.99 0.99 0.99 0.98 0.99 0.99 1.03 1.05 1.06 1.06 1.05 1.04 1.04 1.03 1.00 0.98 0.96 0.95 0.96 0.96 0.95 0.93 0.89 0.88 0.86 0.84 0.84 0.86 0.88 0.90 0.90 0.91 0.92 0.93 0.93 0.93 0.93 0.92 0.91 0.91 0.92 0.94 0.97 1.01 0.98 0.90 0.95 0.95 0.89 0.89 0.83
0.85 0.87 0.90 0.95 1.00 1.09 1.17 1.19 1.20 1.21 1.18 1.15 1.14 1.11 1.11 1.11 1.12 1.11 1.08 1.04 1.01 0.99 0.98 0.95 0.93 0.93 0.92 0.92 0.93 0.93 0.93 0.93 0.94 0.96 0.97 0.99 1.00 1.00 0.98 0.99 0.94 0.93 0.97 0.98 1.00 0.99 0.98 0.98 0.97 0.96 0.93 0.90 0.90 0.90 0.90 0.90 0.86 0.84 0.85 0.85 0.81 0.78 0.81 0.83 0.81 0.81 0.83 0.84 0.84 0.84 0.83 0.85 0.88 0.89 0.90 0.91 0.90 0.90 0.89 0.88 0.91 0.89 0.85 0.85 0.85
0.84 0.89 0.92 0.95 0.98 1.01 1.06 1.11 1.15 1.16 1.17 1.17 1.15 1.13 1.15 1.13 1.11 1.09 1.05 1.04 1.00 0.99 0.97 0.94 0.91 0.89 0.89 0.88 0.85 0.85 0.85 0.83 0.86 0.91 0.95 0.98 0.99 0.99 0.98 0.95 0.95 0.99 1.00 0.98 0.97 0.97 0.96 0.94 0.92 0.89 0.86 0.85 0.85 0.85 0.85 0.87 0.85 0.83 0.81 0.78 0.79 0.79 0.84 0.81 0.79 0.79 0.79 0.80 0.79 0.79 0.80 0.83 0.83 0.82 0.82 0.82 0.83 0.85 0.85 0.84 0.83 0.81 0.79 0.79 0.80
0.82 0.85 0.87 0.91 0.94 0.97 1.02 1.05 1.07 1.09 1.11 1.12 1.13 1.13 1.12 1.10 1.09 1.08 1.05 1.06 1.05 1.01 0.98 0.95 0.94 0.93 0.92 0.91 0.90 0.89 0.88 0.87 0.87 0.89 0.91 0.93 0.94 0.94 0.93 0.93 0.93 0.93 0.92 0.90 0.90 0.89 0.89 0.88 0.88 0.87 0.85 0.84 0.83 0.82 0.82 0.82 0.80 0.78 0.77 0.76 0.78 0.80 0.80 0.77 0.77 0.79 0.76 0.73 0.72 0.76 0.77 0.78 0.77 0.76 0.75 0.74 0.73 0.74 0.75 0.76 0.75 0.74 0.70 0.66 0.65
0.79 0.80 0.82 0.86 0.89 0.93 0.96 1.01 1.05 1.05 1.06 1.07 1.06 1.07 1.10 1.10 1.08 1.06 1.05 1.03 1.01 0.98 0.98 0.98 0.96 0.94 0.94 0.93 0.93 0.92 0.93 0.92 0.91 0.91 0.91 0.90 0.90 0.91 0.89 0.89 0.90 0.88 0.85 0.83 0.83 0.81 0.81 0.82 0.82 0.82 0.81 0.81 0.81 0.79 0.77 0.75 0.74 0.73 0.73 0.74 0.74 0.74 0.72 0.70 0.68 0.66 0.64 0.66 0.67 0.66 0.64 0.61 0.58 0.56 0.54 0.53 0.51 0.50 0.50 0.51 0.53 0.54 0.55 0.56 0.54
0.77 0.77 0.78 0.81 0.84 0.87 0.91 0.93 0.97 1.00 1.01 1.03 1.03 1.01 1.04 1.04 1.05 1.05 1.03 1.01 0.99 0.97 0.96 0.95 0.93 0.92 0.92 0.92 0.92 0.91 0.91 0.91 0.91 0.89 0.88 0.87 0.85 0.85 0.86 0.86 0.86 0.84 0.81 0.78 0.78 0.78 0.79 0.78 0.78 0.78 0.76 0.74 0.73 0.72 0.72 0.72 0.72 0.73 0.74 0.73 0.70 0.66 0.62 0.59 0.57 0.54 0.53 0.54 0.52 0.49 0.48 0.47 0.45 0.45 0.45 0.44 0.44 0.44 0.44 0.44 0.45 0.47 0.49 0.52 0.54
0.72 0.73 0.75 0.77 0.79 0.83 0.85 0.88 0.92 0.93 0.94 0.96 0.97 0.98 0.99 0.99 1.00 1.00 1.00 0.99 0.97 0.95 0.95 0.95 0.94 0.92 0.91 0.90 0.90 0.89 0.88 0.88 0.87 0.86 0.84 0.82 0.81 0.80 0.79 0.78 0.78 0.78 0.78 0.77 0.77 0.76 0.75 0.74 0.74 0.73 0.74 0.74 0.74 0.74 0.73 0.72 0.72 0.71 0.69 0.65 0.61 0.56 0.53 0.51 0.49 0.48 0.48 0.48 0.46 0.44 0.43 0.44 0.44 0.43 0.44 0.45 0.44 0.44 0.43 0.43 0.43 0.44 0.45 0.47 0.51
0.68 0.66 0.67 0.71 0.74 0.76 0.78 0.82 0.85 0.88 0.90 0.92 0.92 0.92 0.93 0.94 0.94 0.97 0.97 0.96 0.94 0.92 0.92 0.92 0.91 0.91 0.89 0.88 0.87 0.87 0.87 0.86 0.85 0.84 0.82 0.83 0.81 0.79 0.78 0.76 0.76 0.75 0.72 0.72 0.71 0.71 0.71 0.70 0.70 0.70 0.70 0.70 0.69 0.68 0.67 0.66 0.64 0.60 0.56 0.54 0.52 0.51 0.50 0.50 0.49 0.48 0.45 0.44 0.43 0.43 0.43 0.44 0.44 0.45 0.47 0.46 0.45 0.45 0.43 0.41 0.42 0.43 0.44 0.44 0.45
0.69 0.67 0.66 0.64 0.64 0.66 0.67 0.72 0.76 0.79 0.83 0.85 0.86 0.87 0.87 0.88 0.88 0.89 0.90 0.90 0.90 0.90 0.89 0.88 0.86 0.84 0.84 0.84 0.84 0.84 0.84 0.83 0.82 0.81 0.78 0.78 0.78 0.77 0.76 0.74 0.71 0.70 0.69 0.68 0.68 0.68 0.67 0.66 0.66 0.65 0.63 0.62 0.60 0.57 0.55 0.55 0.54 0.53 0.52 0.52 0.51 0.50 0.50 0.50 0.49 0.46 0.44 0.44 0.43 0.42 0.42 0.43 0.42 0.43 0.44 0.44 0.43 0.41 0.40 0.38 0.38 0.38 0.39 0.39 0.39
0.69 0.70 0.69 0.68 0.67 0.66 0.66 0.64 0.65 0.70 0.75 0.76 0.76 0.78 0.80 0.81 0.82 0.83 0.84 0.85 0.86 0.86 0.85 0.83 0.80 0.78 0.76 0.76 0.75 0.75 0.74 0.75 0.74 0.72 0.70 0.67 0.66 0.65 0.64 0.62 0.62 0.62 0.62 0.61 0.61 0.60 0.59 0.58 0.56 0.54 0.53 0.52 0.51 0.51 0.51 0.51 0.50 0.50 0.50 0.50 0.50 0.49 0.49 0.48 0.46 0.44 0.42 0.41 0.40 0.40 0.39 0.39 0.40 0.39 0.39 0.39 0.38 0.39 0.40 0.39 0.38 0.38 0.38 0.40 0.39
0.68 0.68 0.69 0.70 0.71 0.70 0.68 0.67 0.64 0.61 0.62 0.68 0.70 0.72 0.73 0.75 0.75 0.74 0.75 0.77 0.78 0.80 0.81 0.78 0.73 0.70 0.67 0.66 0.66 0.65 0.65 0.65 0.65 0.63 0.61 0.60 0.59 0.58 0.57 0.55 0.55 0.55 0.54 0.53 0.53 0.53 0.52 0.51 0.50 0.50 0.49 0.48 0.48 0.47 0.47 0.47 0.46 0.46 0.45 0.45 0.45 0.45 0.44 0.44 0.43 0.41 0.40 0.39 0.38 0.38 0.37 0.37 0.35 0.36 0.36 0.35 0.35 0.37 0.40 0.40 0.40 0.40 0.42 0.43 0.41
0.70 0.70 0.69 0.68 0.68 0.70 0.70 0.70 0.67 0.64 0.61 0.59 0.60 0.64 0.66 0.66 0.67 0.68 0.72 0.75 0.76 0.73 0.72 0.72 0.72 0.69 0.66 0.63 0.61 0.59 0.57 0.56 0.56 0.58 0.57 0.56 0.54 0.51 0.50 0.50 0.52 0.52 0.52 0.51 0.50 0.50 0.49 0.48 0.46 0.45 0.44 0.42 0.41 0.40 0.40 0.40 0.40 0.41 0.40 0.40 0.40 0.40 0.38 0.37 0.35 0.35 0.36 0.35 0.34 0.33 0.33 0.33 0.32 0.33 0.33 0.33 0.34 0.36 0.40 0.39 0.40 0.41 0.43 0.42 0.39
0.71 0.71 0.71 0.70 0.69 0.69 0.68 0.68 0.69 0.68 0.65 0.62 0.60 0.59 0.60 0.60 0.58 0.58 0.60 0.63 0.66 0.68 0.67 0.65 0.65 0.64 0.61 0.62 0.61 0.56 0.53 0.53 0.55 0.54 0.53 0.53 0.52 0.52 0.51 0.52 0.52 0.52 0.52 0.52 0.50 0.46 0.44 0.41 0.41 0.39 0.38 0.37 0.36 0.36 0.35 0.36 0.36 0.35 0.36 0.37 0.36 0.35 0.35 0.34 0.34 0.34 0.34 0.33 0.33 0.32 0.31 0.31 0.31 0.32 0.32 0.31 0.33 0.35 0.36 0.37 0.37 0.38 0.36 0.36 0.35
0.67 0.69 0.70 0.71 0.71 0.71 0.70 0.69 0.67 0.66 0.66 0.65 0.63 0.61 0.60 0.62 0.62 0.62 0.61 0.61 0.61 0.62 0.62 0.63 0.64 0.63 0.61 0.58 0.59 0.59 0.59 0.59 0.58 0.58 0.57 0.56 0.54 0.53 0.52 0.51 0.50 0.49 0.49 0.46 0.43 0.40 0.38 0.36 0.36 0.36 0.36 0.35 0.34 0.33 0.34 0.33 0.33 0.32 0.32 0.33 0.33 0.32 0.32 0.32 0.33 0.34 0.33 0.32 0.32 0.32 0.32 0.31 0.31 0.31 0.31 0.32 0.32 0.34 0.36 0.38 0.38 0.38 0.37 0.37 0.36
0.63 0.64 0.66 0.68 0.69 0.70 0.70 0.71 0.70 0.68 0.66 0.64 0.63 0.61 0.60 0.58 0.59 0.61 0.61 0.60 0.60 0.60 0.59 0.59 0.59 0.59 0.59 0.58 0.56 0.56 0.56 0.56 0.55 0.54 0.52 0.51 0.49 0.48 0.47 0.46 0.45 0.45 0.44 0.43 0.37 0.37 0.36 0.35 0.33 0.33 0.34 0.32 0.33 0.33 0.32 0.31 0.31 0.30 0.30 0.30 0.30 0.32 0.31 0.31 0.33 0.33 0.32 0.32 0.31 0.31 0.31 0.31 0.32 0.33 0.33 0.33 0.34 0.34 0.35 0.36 0.37 0.36 0.37 0.37 0.38
0.62 0.62 0.62 0.63 0.65 0.66 0.67 0.67 0.68 0.68 0.66 0.65 0.63 0.62 0.59 0.57 0.54 0.54 0.57 0.59 0.58 0.56 0.55 0.54 0.54 0.53 0.52 0.51 0.51 0.49 0.49 0.50 0.49 0.48 0.47 0.46 0.45 0.44 0.43 0.42 0.42 0.42 0.41 0.37 0.34 0.33 0.34 0.33 0.32 0.32 0.32 0.31 0.32 0.32 0.32 0.32 0.31 0.31 0.31 0.30 0.30 0.31 0.32 0.33 0.34 0.34 0.33 0.33 0.33 0.32 0.33 0.34 0.34 0.34 0.35 0.35 0.35 0.34 0.35 0.36 0.37 0.38 0.39 0.39 0.40
0.59 0.58 0.58 0.58 0.59 0.61 0.62 0.63 0.64 0.64 0.65 0.65 0.64 0.62 0.60 0.59 0.57 0.55 0.53 0.53 0.53 0.54 0.54 0.53 0.51 0.51 0.51 0.50 0.50 0.49 0.48 0.48 0.48 0.47 0.45 0.44 0.43 0.42 0.40 0.39 0.38 0.38 0.36 0.33 0.32 0.31 0.32 0.31 0.31 0.31 0.32 0.33 0.33 0.33 0.32 0.31 0.31 0.31 0.31 0.31 0.32 0.33 0.34 0.35 0.34 0.33 0.34 0.35 0.34 0.35 0.35 0.35 0.36 0.34 0.34 0.34 0.35 0.35 0.35 0.36 0.37 0.37 0.37 0.39 0.39
0.54 0.53 0.54 0.55 0.54 0.54 0.57 0.59 0.60 0.60 0.60 0.60 0.61 0.60 0.59 0.59 0.59 0.58 0.56 0.53 0.51 0.49 0.49 0.51 0.52 0.51 0.48 0.47 0.48 0.48 0.47 0.47 0.46 0.45 0.44 0.42 0.41 0.39 0.38 0.35 0.32 0.33 0.33 0.33 0.32 0.31 0.31 0.31 0.31 0.32 0.32 0.31 0.31 0.31 0.30 0.30 0.30 0.31 0.31 0.32 0.33 0.34 0.34 0.35 0.35 0.35 0.35 0.35 0.35 0.35 0.36 0.36 0.36 0.35 0.35 0.34 0.34 0.34 0.35 0.36 0.36 0.37 0.37 0.38 0.39
0.50 0.49 0.48 0.49 0.51 0.53 0.53 0.55 0.57 0.58 0.57 0.57 0.58 0.58 0.58 0.57 0.57 0.57 0.57 0.57 0.55 0.53 0.52 0.52 0.52 0.51 0.48 0.46 0.45 0.44 0.44 0.43 0.43 0.42 0.41 0.40 0.39 0.38 0.33 0.31 0.30 0.31 0.31 0.33 0.32 0.32 0.33 0.32 0.32 0.31 0.31 0.31 0.31 0.31 0.31 0.31 0.32 0.33 0.34 0.34 0.34 0.35 0.35 0.35 0.36 0.36 0.36 0.36 0.36 0.36 0.36 0.35 0.35 0.35 0.36 0.36 0.36 0.36 0.37 0.37 0.37 0.38 0.39 0.39 0.40
0.48 0.47 0.45 0.45 0.46 0.48 0.48 0.49 0.52 0.54 0.53 0.53 0.54 0.55 0.54 0.54 0.54 0.53 0.52 0.50 0.49 0.49 0.49 0.49 0.49 0.48 0.48 0.46 0.45 0.43 0.42 0.41 0.39 0.39 0.38 0.38 0.38 0.36 0.34 0.32 0.31 0.32 0.31 0.32 0.33 0.32 0.32 0.32 0.32 0.32 0.32 0.31 0.31 0.32 0.33 0.33 0.34 0.34 0.35 0.35 0.36 0.35 0.35 0.36 0.36 0.37 0.36 0.36 0.36 0.37 0.36 0.36 0.37 0.37 0.36 0.35 0.36 0.37 0.37 0.38 0.38 0.39 0.39 0.40 0.39
0.48 0.46 0.44 0.45 0.45 0.46 0.45 0.45 0.47 0.48 0.49 0.49 0.49 0.49 0.48 0.49 0.49 0.49 0.48 0.47 0.47 0.46 0.46 0.46 0.46 0.44 0.42 0.43 0.46 0.43 0.40 0.40 0.39 0.38 0.38 0.37 0.36 0.35 0.34 0.33 0.33 0.32 0.31 0.32 0.32 0.31 0.31 0.32 0.32 0.32 0.32 0.33 0.33 0.33 0.34 0.34 0.35 0.35 0.36 0.36 0.36 0.37 0.37 0.37 0.38 0.38 0.37 0.37 0.37 0.37 0.37 0.36 0.37 0.36 0.36 0.35 0.35 0.35 0.36 0.37 0.37 0.37 0.37 0.38 0.38
0.47 0.45 0.43 0.44 0.45 0.44 0.43 0.44 0.44 0.45 0.45 0.46 0.46 0.46 0.46 0.46 0.46 0.47 0.46 0.46 0.45 0.45 0.44 0.44 0.44 0.44 0.43 0.44 0.43 0.43 0.39 0.36 0.35 0.34 0.34 0.34 0.35 0.34 0.34 0.34 0.33 0.32 0.31 0.31 0.32 0.32 0.32 0.32 0.33 0.34 0.34 0.34 0.34 0.34 0.35 0.35 0.36 0.35 0.36 0.36 0.36 0.37 0.37 0.37 0.37 0.37 0.37 0.36 0.37 0.37 0.37 0.36 0.36 0.36 0.36 0.35 0.35 0.36 0.36 0.37 0.37 0.37 0.37 0.37 0.37
0.47 0.44 0.43 0.43 0.43 0.43 0.41 0.41 0.42 0.43 0.43 0.44 0.44 0.44 0.44 0.44 0.45 0.45 0.44 0.42 0.41 0.41 0.41 0.41 0.41 0.42 0.43 0.42 0.40 0.39 0.35 0.34 0.34 0.33 0.33 0.33 0.33 0.33 0.33 0.32 0.31 0.31 0.30 0.31 0.32 0.33 0.33 0.34 0.34 0.34 0.34 0.34 0.35 0.35 0.36 0.36 0.36 0.36 0.36 0.35 0.35 0.35 0.35 0.35 0.34 0.34 0.34 0.35 0.35 0.36 0.36 0.36 0.36 0.36 0.35 0.35 0.35 0.36 0.37 0.36 0.36 0.37 0.37 0.37 0.37
0.46 0.46 0.45 0.44 0.43 0.43 0.42 0.40 0.40 0.40 0.41 0.40 0.41 0.41 0.42 0.42 0.43 0.43 0.42 0.40 0.39 0.39 0.39 0.39 0.39 0.40 0.40 0.40 0.39 0.38 0.35 0.33 0.32 0.32 0.32 0.32 0.32 0.32 0.31 0.31 0.31 0.31 0.31 0.32 0.33 0.34 0.34 0.34 0.35 0.35 0.36 0.36 0.36 0.36 0.37 0.37 0.37 0.36 0.35 0.35 0.34 0.34 0.34 0.34 0.34 0.35 0.35 0.35 0.36 0.36 0.36 0.37 0.36 0.35 0.34 0.35 0.36 0.36 0.37 0.37 0.37 0.37 0.37 0.36 0.36
0.45 0.44 0.43 0.44 0.44 0.42 0.41 0.39 0.39 0.40 0.39 0.39 0.38 0.38 0.38 0.40 0.41 0.41 0.40 0.39 0.39 0.38 0.38 0.38 0.38 0.38 0.39 0.38 0.37 0.36 0.33 0.32 0.33 0.32 0.33 0.33 0.32 0.31 0.32 0.32 0.33 0.33 0.33 0.33 0.34 0.34 0.35 0.35 0.36 0.37 0.36 0.37 0.37 0.37 0.37 0.37 0.37 0.36 0.36 0.35 0.35 0.34 0.34 0.34 0.35 0.35 0.35 0.35 0.35 0.34 0.35 0.36 0.36 0.36 0.36 0.35 0.35 0.35 0.35 0.35 0.36 0.35 0.35 0.35 0.34
0.42 0.42 0.42 0.42 0.41 0.39 0.39 0.40 0.40 0.39 0.38 0.38 0.38 0.39 0.39 0.38 0.38 0.39 0.39 0.39 0.38 0.38 0.38 0.37 0.37 0.37 0.37 0.36 0.35 0.34 0.32 0.32 0.32 0.32 0.32 0.32 0.32 0.32 0.32 0.33 0.33 0.34 0.35 0.35 0.36 0.37 0.37 0.36 0.37 0.37 0.38 0.38 0.38 0.38 0.37 0.37 0.37 0.37 0.37 0.36 0.36 0.35 0.34 0.34 0.34 0.34 0.34 0.33 0.33 0.33 0.34 0.34 0.34 0.34 0.34 0.34 0.34 0.33 0.33 0.33 0.33 0.34 0.34 0.34 0.33
0.41 0.43 0.43 0.42 0.40 0.39 0.39 0.38 0.37 0.38 0.38 0.38 0.37 0.38 0.38 0.38 0.38 0.38 0.38 0.38 0.38 0.38 0.37 0.37 0.37 0.36 0.35 0.36 0.34 0.33 0.32 0.32 0.31 0.31 0.31 0.31 0.31 0.31 0.31 0.32 0.34 0.35 0.36 0.36 0.37 0.37 0.37 0.37 0.37 0.38 0.39 0.40 0.40 0.40 0.39 0.39 0.39 0.38 0.37 0.36 0.35 0.34 0.33 0.32 0.32 0.32 0.32 0.32 0.32 0.32 0.33 0.33 0.33 0.33 0.32 0.32 0.32 0.31 0.31 0.31 0.32 0.32 0.32 0.32 0.32
0.40 0.41 0.41 0.41 0.40 0.38 0.37 0.38 0.38 0.38 0.38 0.37 0.36 0.36 0.36 0.37 0.37 0.38 0.38 0.37 0.36 0.36 0.35 0.36 0.36 0.35 0.34 0.34 0.34 0.32 0.32 0.31 0.31 0.30 0.30 0.30 0.30 0.30 0.31 0.32 0.33 0.34 0.34 0.35 0.36 0.37 0.38 0.38 0.38 0.38 0.38 0.39 0.40 0.40 0.40 0.40 0.40 0.38 0.37 0.35 0.32 0.31 0.30 0.30 0.31 0.32 0.33 0.32 0.32 0.32 0.32 0.32 0.31 0.31 0.31 0.31 0.31 0.31 0.30 0.30 0.31 0.31 0.31 0.31 0.31
0.39 0.41 0.42 0.42 0.41 0.39 0.38 0.38 0.38 0.38 0.37 0.37 0.37 0.36 0.36 0.37 0.37 0.37 0.37 0.37 0.36 0.35 0.34 0.33 0.35 0.35 0.35 0.34 0.33 0.32 0.32 0.31 0.31 0.30 0.29 0.29 0.29 0.30 0.31 0.31 0.32 0.33 0.34 0.35 0.36 0.37 0.37 0.37 0.37 0.37 0.38 0.38 0.38 0.38 0.38 0.38 0.37 0.36 0.34 0.32 0.31 0.30 0.30 0.32 0.33 0.33 0.33 0.33 0.32 0.32 0.32 0.31 0.32 0.32 0.31 0.31 0.31 0.31 0.30 0.30 0.30 0.30 0.30 0.29 0.29
0.36 0.38 0.42 0.44 0.43 0.41 0.38 0.38 0.37 0.37 0.37 0.37 0.38 0.38 0.37 0.37 0.37 0.38 0.38 0.37 0.37 0.35 0.32 0.32 0.34 0.34 0.34 0.34 0.33 0.32 0.32 0.31 0.30 0.30 0.29 0.28 0.29 0.30 0.29 0.29 0.29 0.31 0.33 0.34 0.36 0.36 0.36 0.37 0.37 0.37 0.37 0.37 0.36 0.35 0.34 0.34 0.33 0.31 0.30 0.29 0.29 0.30 0.30 0.32 0.33 0.33 0.33 0.33 0.33 0.32 0.31 0.31 0.31 0.31 0.31 0.31 0.30 0.30 0.30 0.29 0.29 0.29 0.30 0.29 0.28
0.37 0.38 0.41 0.43 0.44 0.42 0.39 0.38 0.38 0.37 0.37 0.37 0.38 0.38 0.38 0.37 0.37 0.37 0.37 0.37 0.35 0.34 0.33 0.34 0.35 0.36 0.35 0.35 0.33 0.32 0.32 0.31 0.31 0.30 0.30 0.28 0.27 0.28 0.28 0.28 0.27 0.27 0.29 0.30 0.32 0.32 0.33 0.33 0.33 0.33 0.33 0.32 0.31 0.30 0.29 0.28 0.26 0.26 0.27 0.28 0.28 0.29 0.29 0.30 0.31 0.32 0.32 0.31 0.31 0.30 0.29 0.28 0.28 0.28 0.29 0.28 0.28 0.27 0.27 0.27 0.28 0.28 0.28 0.28 0.27
0.38 0.38 0.39 0.42 0.43 0.43 0.42 0.41 0.39 0.38 0.38 0.38 0.37 0.37 0.38 0.38 0.37 0.37 0.37 0.37 0.36 0.35 0.36 0.35 0.36 0.36 0.35 0.34 0.33 0.33 0.32 0.31 0.31 0.30 0.30 0.29 0.28 0.27 0.27 0.26 0.26 0.25 0.24 0.24 0.26 0.27 0.28 0.29 0.29 0.29 0.29 0.28 0.28 0.26 0.25 0.25 0.25 0.25 0.26 0.26 0.26 0.27 0.27 0.28 0.29 0.30 0.30 0.30 0.29 0.28 0.27 0.26 0.25 0.24 0.24 0.24 0.23 0.23 0.23 0.23 0.23 0.25 0.26 0.26 0.25
0.37 0.39 0.40 0.42 0.43 0.44 0.44 0.42 0.42 0.41 0.40 0.39 0.38 0.37 0.38 0.38 0.38 0.38 0.37 0.37 0.35 0.35 0.38 0.39 0.39 0.38 0.36 0.34 0.33 0.32 0.31 0.31 0.31 0.30 0.30 0.29 0.28 0.27 0.26 0.25 0.25 0.25 0.25 0.24 0.25 0.25 0.26 0.26 0.26 0.27 0.27 0.27 0.27 0.26 0.26 0.26 0.26 0.25 0.25 0.25 0.25 0.25 0.25 0.25 0.25 0.26 0.27 0.27 0.26 0.24 0.23 0.21 0.19 0.18 0.18 0.19 0.19 0.18 0.18 0.18 0.18 0.19 0.20 0.22 0.22
0.38 0.39 0.40 0.41 0.42 0.45 0.43 0.43 0.42 0.41 0.41 0.40 0.38 0.37 0.37 0.38 0.38 0.38 0.38 0.37 0.36 0.36 0.37 0.39 0.38 0.38 0.37 0.35 0.33 0.32 0.31 0.31 0.31 0.31 0.30 0.29 0.28 0.28 0.27 0.25 0.25 0.25 0.25 0.26 0.27 0.28 0.28 0.28 0.28 0.28 0.27 0.27 0.27 0.26 0.26 0.25 0.25 0.25 0.24 0.24 0.24 0.23 0.23 0.23 0.23 0.23 0.24 0.25 0.23 0.21 0.19 0.16 0.15 0.15 0.16 0.16 0.16 0.16 0.16 0.16 0.17 0.18 0.19 0.19 0.21
Wind_Speed
16 17 17 17 17 17 17 18 19 19 19 19 19 19 19 19 20 20 20 20 20 20 19 18 17 17 16 16 16 16 15 15 14 14 14 14 14 14 14 14 14 13 13 13 13 12 12 12 12 12 13 12 13 13 13 13 13 13 13 13 12 12 11 11 9 8 9 10 10 10 9 9 10 11 11 11 11 11 11 11 12 12 12 12 12
16 17 17 17 17 17 18 18 19 19 19 19 19 18 19 20 21 21 21 21 21 20 19 18 17 17 16 16 16 16 15 15 14 14 14 14 14 14 14 14 14 13 13 13 13 13 13 13 12 12 12 12 12 12 12 13 13 13 13 13 13 13 13 12 10 9 9 10 10 11 10 10 11 11 12 12 12 12 12 13 13 13 14 14 14
16 17 17 17 17 18 19 20 20 20 20 20 19 18 19 20 21 22 22 21 21 20 20 19 18 16 16 16 16 15 15 14 14 14 14 14 14 14 14 14 13 13 13 13 13 13 13 13 13 13 12 12 12 11 12 13 12 13 13 13 14 14 14 13 12 10 10 10 11 12 12 12 12 12 13 13 13 13 13 13 14 15 15 16 16
15 16 17 18 18 19 20 21 21 21 21 20 20 19 19 20 22 22 22 21 21 20 20 19 17 17 16 17 16 15 15 14 14 14 14 14 14 14 14 14 13 13 13 13 13 13 13 13 13 13 12 13 12 11 11 12 12 13 13 13 13 14 14 14 13 12 11 11 11 12 13 13 13 12 13 14 14 14 15 15 15 16 16 17 18
14 15 17 18 19 19 20 21 21 21 21 21 21 20 20 21 22 22 22 21 21 21 20 18 17 16 17 17 16 15 15 14 14 14 13 14 14 15 15 14 13 13 13 14 14 13 13 13 13 13 12 12 12 11 11 11 12 12 13 12 12 12 14 14 14 13 12 12 12 13 13 13 13 13 14 15 16 16 17 17 17 18 18 19 19
14 15 16 17 18 19 20 21 21 22 23 22 22 21 21 21 22 23 22 22 21 21 20 18 16 16 17 17 16 15 14 14 14 14 13 13 13 13 14 14 13 13 13 14 14 13 13 14 13 13 12 12 11 11 10 11 11 12 12 12 12 12 13 14 14 14 13 13 13 13 14 15 15 15 16 17 17 18 18 19 19 19 20 20 21
15 16 17 18 18 19 20 22 22 23 23 23 23 22 22 23 23 23 23 22 22 22 20 19 17 16 16 16 15 15 14 13 13 14 13 12 12 13 13 14 13 13 13 13 13 13 13 13 13 13 12 12 11 11 11 10 11 12 12 12 12 12 13 13 14 14 14 14 14 14 15 16 16 17 17 18 18 19 19 20 20 21 21 21 22
16 17 17 18 19 19 20 21 22 22 24 24 23 22 23 24 24 23 23 23 22 21 20 19 18 16 16 15 15 14 14 13 13 13 13 13 13 13 13 14 14 13 13 13 13 13 13 13 12 12 12 12 11 11 11 11 11 12 12 12 11 11 12 13 14 15 14 14 15 15 16 17 17 18 18 19 19 20 21 21 22 22 22 23 23
16 17 17 19 20 20 19 21 21 22 24 24 22 22 23 24 24 23 23 24 22 21 20 19 18 17 16 16 15 14 14 13 13 13 13 13 13 13 13 14 14 13 13 13 13 13 13 12 11 11 11 11 11 11 11 11 11 11 11 11 11 11 12 12 14 14 15 15 16 16 17 18 18 18 19 20 21 22 22 22 23 23 23 24 24
15 17 17 18 19 20 19 20 20 21 24 25 23 22 23 24 23 23 23 24 23 21 20 19 19 18 17 16 15 14 14 14 13 13 13 14 14 13 13 14 14 13 13 14 14 13 13 12 12 11 11 11 11 11 11 11 11 11 11 12 12 12 12 12 13 14 15 16 17 17 18 19 19 19 20 21 22 22 23 23 24 24 24 25 25
13 15 17 17 18 19 19 20 20 21 23 25 23 23 24 25 24 23 23 24 23 22 21 20 20 19 18 17 16 15 14 14 13 13 13 14 14 13 13 14 15 14 14 14 14 14 13 13 13 12 12 12 12 12 12 12 12 12 12 13 13 13 14 14 14 15 15 16 17 17 17 18 19 19 20 21 22 23 24 24 25 25 26 26 26
11 13 15 17 18 19 19 20 21 21 22 24 24 23 24 25 24 23 23 24 23 23 22 21 20 19 18 17 16 15 15 14 13 13 13 13 14 13 14 14 15 15 15 15 15 15 14 13 13 13 12 12 12 12 12 13 13 13 13 13 14 14 15 16 16 16 17 17 17 17 18 18 19 20 20 21 21 22 23 24 25 26 26 27 27
9 10 11 14 15 17 19 20 20 21 22 23 23 24 24 26 25 23 23 24 24 23 23 21 20 19 18 17 16 16 15 14 14 13 13 13 14 14 14 14 14 15 15 15 15 15 15 14 14 14 13 13 13 14 14 14 14 14 15 15 16 16 16 17 17 17 18 18 18 19 20 20 21 21 22 22 23 23 24 25 26 26 27 28 29
8 8 8 9 11 14 16 18 19 20 21 22 23 23 25 26 25 23 23 24 24 24 22 21 19 19 18 18 17 16 15 14 14 14 13 13 14 14 14 14 14 15 15 15 15 15 15 15 15 15 14 15 15 16 16 16 16 16 17 17 17 18 18 18 18 18 19 19 20 21 22 22 23 23 24 24 25 26 27 27 28 28 29 30 31
8 7 6 6 7 10 13 16 17 19 20 22 22 23 24 25 24 23 24 25 24 23 22 21 20 19 19 19 18 17 16 15 14 14 14 14 14 14 15 15 15 15 15 15 15 15 15 15 15 15 15 15 17 17 16 17 17 17 17 18 18 19 19 19 19 20 20 21 21 22 23 24 24 25 26 26 27 27 28 29 29 29 31 32 32
8 7 6 5 5 8 11 13 16 18 20 20 21 23 24 25 23 22 24 25 24 22 22 21 20 20 19 19 19 17 16 15 15 15 15 15 15 15 15 15 15 15 15 15 15 16 16 16 16 16 15 15 16 16 16 17 18 18 18 19 19 20 20 21 21 21 21 22 22 23 24 25 26 27 27 28 28 29 30 30 30 31 32 33 34
7 8 7 5 3 6 9 11 14 17 18 19 20 22 24 24 23 23 24 24 23 22 21 20 20 20 19 19 19 18 17 16 16 16 16 16 16 16 15 15 15 15 15 16 16 16 16 16 17 17 17 17 18 18 18 19 19 19 19 20 21 21 22 22 23 23 23 23 24 25 26 26 27 28 29 29 30 30 31 31 32 32 32 33 34
7 7 7 5 4 4 7 10 12 15 17 18 19 21 23 23 24 24 24 23 23 22 21 20 19 19 19 18 18 18 18 17 16 16 16 16 17 17 17 16 16 16 16 16 16 17 17 17 17 17 18 19 20 20 21 21 22 22 22 22 23 23 23 23 24 24 24 25 26 26 27 28 28 29 29 30 31 31 32 32 33 34 34 35 36
7 7 6 5 4 2 4 8 11 12 14 16 17 19 21 22 23 23 23 22 22 21 21 20 19 18 18 18 18 18 18 17 17 17 17 17 17 18 18 18 18 18 18 18 18 18 18 18 18 18 18 19 20 21 21 22 23 24 24 24 24 24 25 24 25 25 26 26 27 27 28 28 29 30 30 31 32 32 33 34 34 35 36 37 37
7 6 5 4 3 2 2 5 8 10 12 13 14 16 19 20 21 21 20 20 21 21 21 20 19 18 18 18 18 18 18 18 17 17 17 18 18 19 19 19 19 20 20 20 20 19 19 20 20 20 20 20 21 21 22 23 24 25 25 25 25 26 26 25 25 26 26 27 27 28 28 29 30 31 31 32 33 33 34 35 35 36 37 38 38
6 5 5 4 3 3 3 4 6 9 11 12 13 15 17 19 20 20 19 19 19 20 21 21 20 19 19 19 19 18 18 18 17 17 17 18 18 18 18 18 18 18 19 19 20 20 20 21 22 22 22 22 22 23 23 24 25 25 26 26 26 26 25 25 25 26 26 27 27 28 29 30 31 32 32 33 33 34 34 35 35 36 37 38 39
6 5 4 4 3 4 4 5 6 7 10 12 13 15 16 18 20 20 20 20 20 20 21 21 21 20 19 19 19 19 18 18 18 17 17 17 17 17 17 17 17 18 18 19 19 20 21 21 21 22 22 22 22 23 23 23 24 24 24 24 24 24 25 25 25 26 26 27 28 29 29 30 31 32 32 33 34 34 34 35 35 35 36 37 38
6 5 5 4 4 4 5 6 6 7 8 10 12 13 15 17 18 20 20 20 20 20 20 20 20 20 19 19 18 18 17 17 16 16 15 15 15 15 16 16 16 17 18 18 19 19 20 21 21 21 21 21 22 22 22 22 22 22 22 23 23 24 25 25 26 26 27 28 28 29 30 31 31 32 32 33 33 34 34 34 35 35 36 36 37
7 6 6 6 5 5 6 6 6 7 8 9 10 11 12 14 15 18 20 20 19 20 20 20 19 19 18 17 16 15 15 15 15 14 14 14 14 14 14 15 16 17 17 18 18 19 20 20 20 20 20 20 20 20 20 21 21 22 22 23 23 24 25 25 26 26 27 28 28 29 30 30 31 31 32 33 33 33 34 34 35 35 36 36 37
7 6 7 7 6 7 7 7 6 6 7 7 8 9 10 11 11 12 14 16 16 16 17 17 16 15 15 15 14 14 14 14 14 13 13 13 13 14 14 14 15 16 17 17 18 19 19 19 19 19 19 19 19 20 20 21 21 22 22 23 23 24 25 25 26 26 27 27 28 29 29 30 31 31 32 33 34 34 35 36 36 36 36 37 37
8 7 7 6 6 6 7 7 7 7 7 7 7 8 9 10 9 9 10 11 12 13 13 14 14 14 14 14 13 13 13 13 13 12 12 13 13 14 14 15 15 16 17 17 18 18 18 18 18 18 18 18 19 19 20 20 20 21 22 23 23 24 24 25 25 26 26 27 28 29 30 30 31 32 33 33 34 35 36 36 36 37 37 38 38
8 8 8 8 7 7 7 7 7 8 9 9 9 9 9 10 10 9 10 10 11 12 13 14 14 14 13 12 12 12 12 12 12 13 13 13 14 15 15 15 16 16 17 17 17 17 17 17 17 18 18 18 19 19 20 20 20 21 22 22 23 23 24 24 25 26 26 28 28 29 30 31 32 33 33 34 35 35 36 36 37 37 38 39 39
8 8 8 8 9 9 9 8 8 9 9 9 10 10 10 10 10 9 9 10 11 12 13 14 14 13 12 12 12 12 13 13 13 14 14 15 15 16 16 16 16 16 17 17 17 17 17 17 17 18 18 19 19 20 20 21 21 21 22 22 23 23 24 25 25 26 27 28 29 30 31 31 32 33 34 35 35 36 37 37 37 38 39 40 40
10 10 10 10 10 10 11 11 10 9 9 9 9 9 10 10 11 10 10 11 11 12 13 14 14 14 14 14 14 14 14 15 15 15 16 16 16 16 16 16 16 16 17 17 17 17 17 18 18 18 19 19 20 20 21 21 21 22 22 23 24 24 25 26 26 27 28 29 30 31 31 32 33 33 34 35 36 37 37 37 37 38 39 40 40
11 12 12 11 11 12 12 12 11 11 10 10 9 10 10 10 11 11 12 12 12 12 14 14 15 16 16 16 16 16 16 16 16 16 16 16 15 15 16 16 16 16 17 17 17 17 18 18 18 19 19 20 20 20 21 21 22 22 23 24 24 25 26 26 27 28 29 30 30 31 31 32 33 34 35 35 36 36 37 37 37 38 38 38 38
11 11 11 11 11 12 13 13 13 12 12 11 11 11 11 11 11 11 12 12 12 12 13 14 14 15 15 15 15 15 15 16 16 16 15 15 15 15 15 16 16 16 17 17 17 18 18 18 18 19 19 20 20 21 21 22 22 23 23 24 25 25 26 27 28 29 29 30 30 31 32 33 33 34 35 35 35 35 36 36 36 36 36 36 36
12 12 12 12 12 12 13 14 14 14 14 13 13 13 13 13 12 12 12 12 12 12 12 12 13 13 14 14 15 15 15 15 15 15 15 15 15 16 16 16 16 17 17 18 18 18 18 18 19 19 19 20 20 20 21 21 22 23 23 24 25 26 27 27 28 29 29 30 31 32 32 33 33 33 34 34 34 34 35 35 34 34 33 33 32
12 13 13 13 14 13 14 14 15 15 16 15 15 15 14 14 14 14 13 12 12 12 12 12 13 13 13 14 14 15 15 15 15 15 16 16 16 16 16 16 17 17 18 18 18 18 18 19 19 19 19 19 20 20 21 22 22 23 24 25 25 26 26 27 28 28 29 30 31 31 31 32 32 33 33 33 33 33 33 32 32 31 30 29 29
12 13 14 14 14 15 15 15 15 15 16 16 16 16 16 16 15 15 14 14 13 13 13 13 13 14 14 14 14 14 15 15 15 16 16 16 16 16 16 16 16 17 17 18 18 18 18 18 18 19 19 19 20 20 21 22 23 23 24 24 25 25 26 27 27 28 28 29 29 30 30 31 31 31 31 31 31 30 30 29 28 28 27 26 25
13 14 14 15 15 16 16 17 16 16 16 17 17 17 17 16 16 16 15 15 15 15 15 15 15 15 16 16 15 15 15 15 15 16 16 16 16 16 16 16 16 16 16 17 17 17 17 18 18 19 19 19 20 21 21 22 23 23 23 24 24 25 25 26 26 27 27 28 28 29 29 30 30 29 29 28 28 27 27 26 25 24 23 22 21
15 15 15 16 16 16 16 17 17 17 16 16 17 17 17 17 17 17 16 16 16 16 16 16 16 17 17 16 16 16 16 16 16 16 16 16 17 17 17 16 16 16 16 16 16 17 17 17 17 18 18 19 20 20 21 21 22 22 23 23 23 24 25 25 26 26 27 28 28 28 28 28 28 27 26 25 24 24 23 22 22 21 20 19 19
16 16 16 16 16 16 16 16 16 16 16 16 16 17 18 18 18 18 18 17 17 17 17 17 18 18 18 18 17 17 17 16 16 16 16 16 16 17 16 16 16 16 16 16 16 17 17 17 17 17 18 19 19 20 20 20 21 21 22 22 23 23 24 25 25 26 26 27 27 27 26 26 25 24 23 22 22 21 20 20 19 19 18 18 18
17 17 16 17 17 17 16 16 16 16 16 16 16 17 18 19 19 19 19 18 18 18 18 18 18 18 18 18 18 18 17 17 16 16 16 16 16 16 16 16 16 16 16 16 16 17 17 17 17 18 18 18 19 19 19 20 20 21 21 22 23 23 24 24 25 25 25 25 25 24 23 22 22 21 20 20 19 19 19 18 18 18 18 18 17
17 16 16 17 17 18 17 17 17 17 16 17 17 18 18 19 19 19 19 18 18 18 18 18 18 18 18 18 18 18 18 18 17 17 16 16 16 16 16 16 16 16 16 16 16 16 16 17 17 17 18 18 18 19 19 19 20 20 21 22 22 23 23 23 23 23 23 23 22 21 20 20 20 19 18 18 18 17 17 17 18 18 17 17 17
17 16 16 16 17 17 17 17 17 17 17 18 18 19 20 20 20 20 19 19 18 18 18 18 18 18 18 18 18 18 18 18 17 17 16 16 16 16 16 16 16 16 16 16 16 16 16 17 17 17 17 18 18 18 19 19 19 20 20 21 22 22 22 22 22 21 21 21 20 19 18 18 18 17 17 17 17 16 16 16 17 16 16 15 15
18 18 17 17 17 18 18 17 17 18 18 19 19 20 21 20 20 20 20 19 19 18 18 18 18 18 18 18 18 18 18 17 17 17 17 17 17 16 16 16 16 16 16 16 16 16 16 17 17 17 17 17 18 18 18 19 19 20 20 21 21 21 21 21 20 20 20 19 18 18 17 17 16 16 16 16 16 15 15 15 15 15 14 14 14
19 19 19 19 19 19 19 19 19 19 19 19 20 20 21 21 21 20 20 19 19 19 19 19 19 18 18 18 17 17 17 18 18 18 17 17 17 17 16 16 16 16 16 16 16 16 16 16 17 16 17 17 17 18 18 19 19 20 20 20 20 20 20 20 19 19 18 17 17 16 16 16 15 15 15 15 15 15 14 14 14 14 14 13 13
18 19 19 19 20 20 20 21 20 20 20 20 20 21 22 22 22 21 21 20 20 20 20 20 19 19 19 18 18 18 18 18 18 18 18 17 17 17 16 16 16 15 15 15 15 15 16 16 16 16 16 16 17 17 18 18 19 19 19 19 19 19 19 18 18 17 16 16 16 15 15 15 15 14 14 15 15 15 14 14 14 13 13 13 13
18 18 18 19 18 18 19 20 20 20 20 20 21 21 22 22 22 22 21 21 21 20 21 21 21 20 20 19 19 19 19 19 18 18 18 18 17 17 16 16 16 15 15 15 15 15 15 15 15 15 16 16 16 17 17 17 18 18 18 18 18 17 17 17 16 16 15 15 15 15 14 14 14 14 14 15 15 15 14 14 13 13 12 13 13
16 17 18 17 17 17 18 19 19 19 19 19 20 20 21 22 22 21 21 22 21 21 21 22 22 21 21 21 20 20 20 19 18 18 18 17 17 16 16 16 15 15 14 14 14 14 14 14 14 14 15 15 15 16 16 16 17 17 17 16 16 16 15 15 15 15 15 15 14 14 14 14 14 14 14 14 14 14 14 13 13 12 12 12 12
15 16 16 17 16 16 17 19 19 19 18 19 19 19 20 21 21 21 21 22 22 22 22 23 22 22 21 21 21 21 20 19 18 17 17 16 16 16 16 15 15 14 14 14 13 13 13 13 13 13 13 13 14 14 15 15 15 15 15 15 14 14 14 14 14 14 14 14 14 14 14 14 14 14 14 14 14 14 13 13 12 12 12 12 12
13 14 15 15 16 16 17 18 19 18 18 18 18 18 18 20 20 21 21 21 21 22 22 22 22 22 22 21 21 21 20 19 18 17 16 16 16 15 15 14 14 14 13 13 13 12 12 12 12 12 12 12 13 13 13 14 14 14 13 13 13 13 13 13 13 13 13 13 13 13 13 13 14 14 14 14 14 13 13 12 12 11 11 11 11
12 13 13 14 14 14 14 16 17 18 18 18 18 17 17 18 19 20 20 21 21 21 21 21 21 21 21 21 21 20 19 18 18 17 16 15 15 15 14 14 13 13 12 12 12 12 11 11 11 11 11 11 11 11 12 12 12 12 12 12 12 12 12 12 12 12 12 12 13 13 13 13 13 13 14 13 13 13 13 12 12 11 11 11 10
12 12 12 13 13 13 13 13 15 16 17 17 17 17 16 17 18 19 19 20 20 20 20 21 21 21 21 21 20 20 19 18 17 16 16 15 14 14 14 13 12 12 12 11 11 10 10 10 10 9 9 9 9 10 10 10 11 11 11 11 11 11 11 11 12 12 12 12 12 13 13 13 13 13 13 13 13 13 12 12 12 12 11 11 10
12 11 12 12 13 13 13 13 13 14 15 16 16 16 15 15 16 16 17 17 17 17 18 19 19 19 20 20 19 19 18 18 17 16 15 15 14 14 13 12 12 11 11 10 10 9 9 8 8 8 8 8 8 9 9 10 10 10 11 11 11 11 11 11 12 12 12 12 12 13 13 13 12 12 12 12 11 11 11 11 11 11 11 10 10
12 12 12 12 13 14 14 13 13 13 14 15 15 15 14 14 14 14 14 14 15 15 16 17 17 17 18 19 19 18 18 17 17 16 15 14 14 13 13 12 12 11 11 10 9 9 8 8 8 8 8 8 8 8 9 10 10 10 11 11 11 11 11 11 12 12 12 12 12 12 12 11 11 11 11 11 11 11 11 10 10 10 9 9 9
Wind_Direction
229 229 230 229 228 226 226 226 225 225 225 223 221 221 220 218 214 211 210 210 210 209 210 211 210 210 211 212 213 213 214 217 219 221 222 222 222 223 223 224 224 225 224 222 221 219 218 219 218 216 216 217 217 218 220 222 224 225 224 224 225 227 226 224 225 225 224 227 231 231 228 228 229 231 233 235 238 240 242 242 243 245 247 249 252
229 230 232 231 231 230 228 227 226 225 223 221 221 220 218 216 213 210 210 210 210 210 211 210 209 210 210 211 212 213 214 216 218 220 220 220 221 222 222 222 223 224 222 220 219 217 217 218 218 218 217 218 218 219 220 222 224 225 225 227 229 230 229 228 229 229 230 232 233 233 233 234 236 237 237 239 241 243 246 247 248 249 250 252 254
231 232 233 233 234 233 231 229 226 224 220 219 219 218 216 215 212 210 210 210 210 210 210 209 210 212 211 211 212 212 213 215 216 217 218 218 219 220 221 222 222 223 222 219 218 217 217 217 218 219 218 218 220 221 221 223 225 225 228 233 236 237 234 231 232 235 237 236 235 235 237 239 242 243 242 242 243 245 249 251 251 252 253 255 257
234 234 234 235 236 235 233 231 227 223 220 219 218 217 216 214 211 209 210 209 209 209 208 209 212 212 210 210 210 210 212 214 215 217 219 220 221 222 223 223 223 224 222 220 219 218 217 217 218 218 216 216 221 224 223 225 228 229 232 236 238 237 232 229 232 239 241 240 239 240 241 244 247 247 245 245 247 250 253 255 256 257 258 259 260
238 237 237 237 238 236 234 233 228 223 221 219 218 217 216 213 210 208 209 209 208 207 208 210 211 209 208 209 209 208 209 212 214 218 221 223 225 225 223 222 224 224 223 221 221 220 218 218 218 217 215 216 220 225 227 230 232 231 232 235 235 232 229 230 234 239 242 242 243 244 246 249 252 252 249 251 254 256 257 257 259 261 262 262 263
245 242 240 239 239 237 235 234 230 225 222 218 216 215 215 213 209 207 207 208 206 207 209 210 208 206 207 208 207 207 209 212 215 218 220 221 222 221 218 219 221 222 221 220 220 220 219 218 217 216 215 216 220 225 229 232 232 232 233 234 234 231 232 234 236 238 241 243 245 247 248 250 254 256 256 256 257 259 260 261 262 263 263 264 266
252 246 243 242 241 239 237 234 230 226 222 216 213 214 213 211 207 206 206 206 206 207 209 208 206 205 206 206 207 209 212 214 217 219 220 218 217 216 215 217 219 220 219 218 219 220 219 216 215 215 216 218 222 224 228 232 233 234 235 235 235 235 235 237 238 240 243 245 248 250 251 253 256 259 261 260 260 262 263 264 265 265 265 266 269
256 250 249 246 243 242 239 235 231 226 221 215 212 213 211 207 205 206 206 205 204 205 206 205 204 204 206 207 210 213 214 216 219 222 222 219 217 217 218 218 218 218 217 217 217 216 214 212 213 215 217 221 225 227 229 234 237 238 238 238 238 238 239 241 242 244 246 248 251 254 256 257 258 261 264 263 263 264 264 264 266 268 269 269 270
261 255 253 250 245 242 239 236 232 225 219 214 212 212 209 204 203 205 205 204 203 203 204 203 203 204 207 210 213 215 215 217 221 225 225 223 221 222 222 218 216 216 215 214 213 211 211 213 216 218 221 224 227 230 234 237 241 241 240 240 242 243 244 246 247 249 251 254 256 258 260 261 262 263 264 264 264 267 268 267 267 269 271 271 271
265 256 254 252 246 242 239 234 229 223 216 213 212 211 206 203 202 204 203 202 201 202 203 203 203 204 208 211 214 216 217 219 222 226 227 225 223 223 222 217 214 213 214 214 213 213 214 218 219 221 225 229 231 233 235 238 242 242 242 243 246 248 249 250 251 253 255 258 262 263 264 266 267 267 267 267 268 269 270 269 269 271 272 272 273
274 259 253 250 245 240 236 231 225 220 215 213 212 211 206 203 202 202 202 202 201 201 202 203 204 206 208 210 212 215 217 219 222 225 225 222 221 222 221 217 214 214 215 215 215 216 218 221 224 226 231 234 237 237 238 239 241 242 243 245 249 253 255 256 258 260 261 264 266 267 268 269 271 271 272 273 272 271 271 271 271 271 271 272 273
289 270 256 249 243 238 234 227 221 218 215 212 211 209 205 203 201 201 202 202 200 201 202 203 205 206 207 209 211 215 218 220 222 223 222 220 219 220 220 218 217 217 216 217 219 221 222 226 229 232 235 237 239 241 242 243 244 245 248 251 255 259 262 263 265 266 267 269 270 271 272 273 274 276 276 277 277 276 276 275 274 273 273 273 274
304 284 264 251 242 235 230 223 219 218 213 209 209 208 205 204 202 201 202 201 200 201 203 204 206 208 209 211 213 215 218 222 223 222 221 220 219 219 221 220 219 220 219 218 220 223 225 228 231 235 237 239 241 243 245 247 249 250 252 255 260 263 266 268 269 269 270 271 272 273 274 275 277 278 279 280 280 280 280 280 279 278 277 277 277
320 305 281 258 239 230 225 219 216 215 211 207 208 207 204 202 201 203 203 201 201 203 204 206 209 210 212 213 214 216 220 224 224 221 221 222 220 221 223 223 223 224 223 222 223 225 227 230 232 235 238 241 243 245 247 249 252 253 255 258 262 265 268 270 271 272 272 273 274 275 276 277 278 279 281 282 282 282 282 282 281 280 279 279 279
329 320 307 277 241 225 222 218 213 210 207 205 205 204 201 199 200 204 203 200 201 204 206 209 211 211 213 214 215 218 222 225 224 222 221 222 221 223 226 226 227 228 228 228 229 230 231 233 234 236 240 245 245 245 248 251 253 256 258 260 263 266 269 270 271 272 273 274 275 276 277 278 279 280 282 283 283 282 282 282 281 280 280 280 280
337 326 321 304 249 226 222 217 209 205 203 203 202 199 197 198 201 203 201 200 202 205 207 210 212 213 215 217 217 219 222 226 226 224 222 222 222 225 227 228 229 229 230 233 233 234 236 236 237 239 242 245 246 248 251 255 258 260 260 262 265 267 269 271 272 273 274 276 277 278 279 280 282 282 283 283 283 283 283 283 282 281 281 280 280
341 333 331 323 271 231 220 212 204 201 200 200 199 198 200 202 204 203 201 201 204 207 208 211 213 215 217 219 219 219 222 225 227 226 226 226 226 228 230 229 229 230 232 235 236 237 239 240 242 245 245 245 249 253 256 257 260 263 264 266 268 269 270 272 272 273 275 276 277 279 281 282 283 283 284 284 283 283 284 284 283 283 282 281 280
332 332 334 329 305 251 216 204 199 199 199 200 202 205 206 207 206 203 202 204 207 209 210 211 213 215 217 219 220 220 221 226 229 229 230 231 231 233 234 232 232 234 238 240 241 241 243 246 248 249 248 248 252 257 259 259 260 263 266 269 270 269 270 272 273 273 275 277 278 280 282 283 284 284 284 285 284 283 283 284 284 283 282 282 282
325 325 327 323 315 289 211 198 197 198 200 203 205 205 205 204 203 202 203 205 208 210 211 211 212 215 217 218 219 220 222 226 229 231 233 236 237 237 238 238 237 239 242 245 246 246 249 251 251 251 252 255 258 261 263 264 263 263 266 270 271 271 271 273 274 274 276 277 279 280 281 282 284 284 285 285 285 284 284 284 284 284 283 283 283
320 315 311 309 300 272 200 188 192 195 198 202 202 200 198 198 199 200 204 207 210 211 212 212 213 215 217 219 220 223 225 228 231 235 238 241 242 242 243 242 241 240 242 244 247 249 252 254 254 254 257 260 262 264 265 266 266 266 267 269 271 271 272 273 274 275 276 278 279 280 281 282 284 285 285 286 287 287 285 285 285 284 284 284 284
314 308 299 293 276 236 200 185 190 194 195 195 195 196 198 200 202 205 209 213 213 212 213 215 216 218 221 222 222 224 228 232 236 239 241 242 243 243 243 243 241 240 241 244 246 249 252 253 255 257 260 262 263 264 265 267 268 268 268 269 270 271 272 273 274 276 277 278 279 281 282 283 284 285 286 287 288 288 288 287 287 286 286 285 284
300 299 291 281 265 238 219 209 205 204 202 199 197 198 203 207 210 211 214 215 214 212 215 217 219 222 225 227 227 228 231 235 238 239 239 241 242 242 241 241 242 242 243 244 246 249 251 254 256 259 262 264 265 267 268 269 270 270 270 270 271 273 273 274 275 277 278 279 280 281 283 284 285 286 287 288 289 290 290 290 289 289 288 287 286
290 289 286 278 265 246 231 220 212 211 213 212 210 212 214 215 216 216 216 216 215 215 217 219 221 224 228 230 231 231 230 231 233 235 236 238 239 239 239 240 242 243 244 246 248 251 254 256 259 262 264 266 268 269 270 270 271 272 272 272 273 274 274 274 275 277 278 279 280 282 283 285 286 287 288 289 290 291 292 292 291 290 289 289 289
287 284 282 277 267 254 241 229 218 213 214 214 213 215 218 219 220 220 219 218 217 219 222 224 224 225 224 224 223 221 220 221 226 230 234 236 238 239 240 242 245 246 247 249 251 254 256 259 261 264 266 267 268 269 270 270 272 273 273 274 275 275 275 276 277 278 280 281 282 284 286 287 288 289 290 290 291 291 292 293 293 293 292 291 291
282 281 277 271 264 254 244 236 227 218 214 211 209 209 210 211 212 213 212 211 213 216 218 217 215 213 210 210 213 214 215 219 224 229 233 237 239 241 243 245 248 248 249 251 253 255 258 260 262 265 266 267 268 270 271 273 275 276 276 276 277 277 278 279 280 281 282 283 285 286 288 289 289 290 291 292 292 293 294 294 295 294 293 292 292
272 272 268 262 258 251 241 235 231 225 222 221 217 214 212 210 208 206 204 204 206 206 202 198 198 201 204 207 211 214 217 220 225 230 235 238 240 243 245 248 250 251 252 254 256 257 259 261 263 265 267 268 270 271 273 275 277 278 279 279 279 280 280 281 282 283 284 285 287 288 289 290 291 292 293 293 293 294 294 294 294 294 294 293 294
264 262 260 256 253 247 239 233 233 234 234 233 228 222 219 218 217 216 213 211 209 208 205 201 200 203 208 213 217 221 225 229 233 238 242 245 247 248 249 251 252 253 255 256 258 259 260 262 263 265 267 269 271 272 274 276 278 280 281 281 282 283 283 284 285 286 286 287 288 289 290 291 292 293 293 294 294 294 295 295 295 295 295 294 294
261 260 257 253 249 246 243 242 243 242 240 236 232 228 226 226 225 224 221 219 215 212 210 210 212 215 221 227 232 237 240 243 246 249 252 253 253 253 253 254 255 256 257 258 258 259 260 262 264 266 268 270 272 274 276 278 280 282 283 284 285 285 286 287 287 287 288 288 289 290 291 292 293 294 294 295 295 295 295 295 295 295 295 295 295
259 258 256 253 249 246 246 247 247 243 239 236 235 234 233 232 232 232 232 230 226 222 220 223 227 231 236 240 244 246 249 252 254 256 257 257 256 255 255 256 257 257 258 258 259 260 262 264 267 269 271 274 276 278 280 281 282 284 284 285 286 286 287 287 288 289 289 290 291 292 293 294 295 295 296 296 296 296 296 296 296 296 296 296 296
261 258 256 255 252 249 248 248 246 242 239 239 240 239 239 239 238 237 238 240 239 236 233 234 238 241 244 248 250 251 251 253 256 258 258 258 257 257 257 257 258 258 258 259 261 263 266 269 272 274 275 277 278 279 281 282 283 284 285 286 286 287 288 289 289 290 291 292 293 294 294 295 296 297 297 298 298 298 298 298 298 298 298 298 298
259 258 256 255 255 253 251 248 246 244 243 243 243 242 240 240 241 242 243 245 246 246 244 242 243 245 247 250 252 253 253 255 256 257 257 257 258 258 258 258 259 260 261 262 265 268 270 272 274 276 277 278 279 280 281 282 283 284 285 286 287 288 289 290 290 291 292 293 294 295 296 297 297 298 298 299 300 300 301 301 301 300 300 299 299
254 254 252 250 250 251 251 247 244 243 243 243 243 242 241 241 243 247 250 251 251 252 251 249 248 249 249 250 252 253 253 254 255 255 256 257 258 259 260 261 262 263 265 266 268 270 272 273 275 277 278 278 279 281 282 283 284 285 286 287 288 289 290 291 292 293 294 295 296 297 298 298 298 299 300 301 302 302 302 302 302 301 301 300 300
253 253 252 248 246 247 249 248 245 242 241 241 241 242 241 241 241 244 248 251 253 254 254 253 252 252 252 252 252 253 254 255 255 256 257 259 260 262 264 265 267 268 268 269 270 272 273 275 276 277 278 278 279 280 281 283 285 286 288 289 290 291 292 293 294 295 296 297 298 298 299 300 300 302 303 303 304 303 303 303 302 302 302 302 302
256 256 254 250 248 247 247 247 246 244 243 241 241 242 242 241 240 241 243 247 251 253 255 255 255 254 254 254 255 256 258 258 258 259 260 261 262 263 265 267 269 271 270 269 270 271 273 274 275 276 277 278 279 280 282 284 286 288 290 291 292 293 295 296 297 298 298 299 300 301 302 303 303 304 304 304 304 304 303 303 303 303 304 304 304
261 262 259 254 251 249 248 246 246 246 245 243 243 244 244 243 242 243 244 246 249 252 254 256 257 257 257 257 258 260 262 262 262 262 263 263 263 264 265 266 268 269 269 268 269 270 272 273 275 276 278 279 281 282 284 286 288 290 292 293 294 295 297 298 298 300 300 301 303 304 305 305 305 305 305 304 304 304 304 304 304 305 306 306 308
263 265 263 258 255 254 252 250 249 250 250 248 246 245 244 243 244 244 246 247 250 251 253 256 259 260 261 262 263 265 266 265 264 264 265 265 265 265 265 266 266 267 268 269 271 272 274 275 276 278 280 282 283 285 287 289 291 292 294 295 296 297 298 299 300 302 303 304 305 306 306 306 306 306 305 304 304 305 306 307 307 308 309 310 312
260 263 261 256 253 254 254 252 251 251 251 250 248 245 242 241 242 243 245 247 249 251 253 256 259 260 262 263 264 265 265 265 266 266 267 267 266 265 265 265 266 268 270 272 274 275 276 278 279 281 283 285 288 289 290 292 293 294 295 296 297 299 300 302 303 304 305 305 306 306 306 306 306 306 305 305 305 306 308 309 310 310 310 311 313
258 261 260 256 253 252 252 251 249 249 250 250 250 247 245 242 241 242 245 247 248 249 251 254 256 256 257 259 262 263 264 265 266 266 266 266 265 265 265 266 269 271 273 274 275 276 277 279 282 284 287 289 290 291 292 293 295 297 298 299 300 302 303 304 305 306 306 306 306 306 305 305 306 307 307 307 308 308 309 310 311 311 311 311 312
258 260 261 259 256 254 254 253 252 251 251 252 252 251 250 247 246 247 248 249 250 251 253 255 255 255 256 259 261 263 264 265 265 264 265 266 266 266 267 269 271 273 273 274 274 276 278 280 283 286 288 289 291 292 294 296 298 299 301 302 303 304 305 306 306 307 306 306 306 305 305 306 307 308 309 310 311 311 312 312 312 312 312 312 311
257 258 261 260 258 256 257 257 256 256 256 255 254 253 251 249 248 249 250 250 251 252 255 255 255 254 256 258 261 262 263 263 263 262 263 266 268 269 269 269 271 272 273 273 274 276 278 281 284 286 288 289 292 294 296 298 300 302 303 304 305 306 306 306 307 307 307 306 306 305 306 308 309 310 311 312 313 313 313 314 314 314 313 312 311
258 258 260 261 260 258 257 256 255 256 257 257 256 255 252 250 249 249 250 250 250 252 253 253 252 253 255 257 259 261 262 262 261 262 263 265 268 269 269 269 270 271 272 273 274 276 279 282 285 287 289 291 293 296 298 300 301 303 304 305 306 307 307 307 307 306 306 305 305 305 306 307 309 311 312 314 315 316 315 315 315 314 313 313 312
259 258 259 261 262 260 258 256 254 254 254 255 255 254 253 251 250 250 251 252 252 253 254 254 253 254 256 258 259 262 262 261 261 262 263 264 265 266 267 269 270 271 272 273 274 277 280 284 286 289 291 293 295 297 299 300 302 303 305 306 307 307 307 307 306 305 305 305 305 306 307 307 309 310 312 313 316 317 316 315 314 313 312 312 313
260 258 260 262 263 262 260 257 254 253 254 255 256 255 254 252 251 250 251 252 252 253 254 255 255 255 256 258 260 262 263 262 262 262 261 262 262 264 265 267 269 271 272 274 276 278 282 285 287 290 292 294 295 297 299 300 302 304 305 306 306 307 306 306 305 304 305 305 306 307 308 308 308 309 310 312 314 315 316 315 314 313 313 313 313
262 261 261 263 264 263 260 256 253 254 256 258 259 258 256 254 252 252 252 253 253 254 255 254 253 253 255 256 258 260 262 262 261 260 260 260 261 263 264 266 268 271 273 275 278 280 282 285 287 290 293 295 296 298 300 302 303 304 304 304 305 305 304 304 304 305 306 306 307 307 308 308 307 307 309 311 312 314 315 316 316 315 315 316 317
266 265 265 266 266 263 259 256 255 256 258 261 263 262 259 255 252 252 254 254 255 256 256 254 252 253 254 255 256 259 260 260 259 258 259 259 261 262 264 265 267 269 272 275 278 281 283 286 288 291 293 296 297 299 301 303 304 304 304 304 303 303 303 304 305 306 306 307 307 308 308 308 308 308 309 311 311 312 314 316 317 318 318 319 320
273 270 267 267 267 265 261 258 258 259 260 262 263 262 260 255 253 254 255 255 255 258 257 255 253 253 253 253 255 257 258 258 258 258 259 259 259 260 262 263 265 267 270 273 276 280 283 286 288 290 292 295 298 300 302 303 304 305 305 304 304 304 305 306 307 308 308 308 309 309 309 309 309 309 310 311 312 312 311 312 314 316 318 319 320
282 277 271 267 268 268 265 262 261 261 262 263 263 262 260 257 255 255 255 255 257 259 257 253 253 254 253 251 253 255 255 254 255 256 257 257 257 257 259 261 263 265 268 271 274 277 281 283 286 288 291 294 298 301 303 304 306 306 306 306 306 307 308 308 309 309 310 311 311 310 310 309 309 309 310 311 312 311 310 308 309 311 313 314 316
290 284 278 272 271 272 269 265 263 263 264 264 263 263 262 259 257 256 256 256 259 259 254 250 252 255 253 250 250 251 251 250 251 252 254 255 255 254 255 257 259 262 265 268 271 275 278 281 284 287 290 294 299 303 306 308 310 310 310 310 310 310 311 311 311 311 312 312 311 311 311 310 310 309 309 310 311 311 309 307 305 306 308 309 311
298 290 284 279 276 274 272 269 267 266 265 266 265 263 262 261 259 258 258 259 259 257 252 250 252 254 251 248 247 247 246 246 246 248 250 252 252 251 251 253 255 257 260 264 268 271 275 279 283 287 291 295 301 306 311 313 315 316 315 315 315 314 314 314 313 313 314 314 313 314 314 313 311 310 309 309 310 310 310 307 305 304 304 304 306
306 297 289 283 278 275 272 273 272 269 267 267 268 266 264 263 261 259 259 259 258 255 252 252 254 253 248 243 241 241 242 242 242 243 245 247 247 247 247 249 251 253 255 259 263 267 272 278 283 287 291 296 302 308 313 317 318 318 317 316 316 316 316 316 316 315 314 315 316 317 317 317 315 313 312 311 311 312 312 311 309 307 305 302 301
312 304 294 288 284 278 273 273 276 274 269 268 269 268 267 266 264 261 260 259 256 253 252 252 253 251 245 239 236 236 237 237 237 238 240 241 243 243 244 246 249 251 253 256 259 264 269 275 280 284 290 295 300 307 313 317 318 318 317 316 316 315 315 315 315 315 315 316 317 318 319 321 321 319 316 314 314 314 314 314 314 312 310 307 303